GW3287 Weather Reports


time (UTC)temp
F
wind
direction
speed
knots
gust
knots
rain 1hr
in
rain 24hr
in
rain mn
in
humidity
%
barometer
mb
20260503220458 67 263 7.8 14.8 0.00 0.00 0.00 44 1004.6
20260503215459 68 252 7.8 17.4 0.00 0.00 0.00 41 1004.7
20260503214958 68 261 7.0 15.6 0.00 0.00 0.00 42 1004.4
20260503214501 67 246 7.8 15.6 0.00 0.00 0.00 42 1004.6
20260503213458 67 167 9.6 17.4 0.00 0.00 0.00 41 1005.0
20260503212958 67 203 9.6 20.9 0.00 0.00 0.00 41 1005.0
20260503212501 67 261 9.6 20.9 0.00 0.00 0.00 41 1004.9
20260503211958 67 205 9.6 14.8 0.00 0.00 0.00 42 1004.9
20260503211458 67 261 8.7 20.0 0.00 0.00 0.00 41 1004.9
20260503210958 67 205 7.8 20.0 0.00 0.00 0.00 40 1005.0
20260503210501 68 185 6.1 20.0 0.00 0.00 0.00 41 1004.9
20260503210001 67 193 7.8 20.0 0.00 0.00 0.00 44 1005.1
20260503205001 66 237 10.4 25.2 0.00 0.00 0.00 46 1005.2
20260503204458 66 243 7.8 24.3 0.00 0.00 0.00 46 1005.4
20260503203958 66 248 7.0 19.1 0.00 0.00 0.00 47 1005.5
20260503203458 66 251 8.7 20.0 0.00 0.00 0.00 48 1005.5
20260503203000 65 226 9.6 20.0 0.00 0.00 0.00 48 1005.7
20260503202458 65 247 8.7 20.9 0.00 0.00 0.00 48 1005.9
20260503201958 64 216 9.6 20.9 0.00 0.00 0.00 48 1005.9
20260503201458 64 223 9.6 23.5 0.00 0.00 0.00 48 1006.1
20260503201001 64 215 11.3 23.5 0.00 0.00 0.00 47 1006.1
20260503200458 64 231 11.3 23.5 0.00 0.00 0.00 49 1006.2
20260503200000 63 192 13.0 26.1 0.00 0.00 0.00 48 1006.2
20260503195500 64 178 13.0 26.1 0.00 0.00 0.00 45 1006.3
20260503194001 65 226 12.2 26.9 0.00 0.00 0.00 42 1006.3
20260503193458 65 254 13.0 26.1 0.00 0.00 0.00 43 1006.3
20260503192958 65 221 12.2 26.1 0.00 0.00 0.00 42 1006.3
20260503192458 66 240 10.4 20.9 0.00 0.00 0.00 40 1006.3
20260503191458 66 242 8.7 21.7 0.00 0.00 0.00 42 1006.3
20260503190958 66 238 8.7 21.7 0.00 0.00 0.00 40 1006.5
20260503190458 66 194 8.7 19.1 0.00 0.00 0.00 40 1006.5
20260503190003 66 213 7.8 17.4 0.00 0.00 0.00 41 1006.4
20260503185458 66 242 8.7 20.9 0.00 0.00 0.00 42 1006.6
20260503184459 65 235 8.7 18.2 0.00 0.00 0.00 41 1006.7
20260503183458 65 204 7.8 20.9 0.00 0.00 0.00 43 1007.0
20260503182958 64 189 7.8 20.9 0.00 0.00 0.00 46 1007.0
20260503181458 62 231 7.0 16.5 0.00 0.00 0.00 51 1007.3
20260503180958 62 201 6.1 15.6 0.00 0.00 0.00 51 1007.3
20260503180500 62 160 6.1 16.5 0.00 0.00 0.00 53 1007.5
20260503180001 62 189 7.0 16.5 0.00 0.00 0.00 52 1007.6
20260503175458 61 263 8.7 15.6 0.00 0.00 0.00 53 1007.7
20260503174458 61 217 9.6 23.5 0.00 0.00 0.00 53 1007.8
20260503173958 61 217 7.0 20.9 0.00 0.00 0.00 52 1008.0
20260503173458 61 130 7.0 14.8 0.00 0.00 0.00 54 1008.1
20260503173001 60 222 7.8 26.1 0.00 0.00 0.00 53 1008.1
20260503172458 59 221 7.0 17.4 0.00 0.00 0.00 55 1008.3
20260503171958 59 233 6.1 15.6 0.00 0.00 0.00 58 1008.3
20260503171458 58 184 6.1 14.8 0.00 0.00 0.00 59 1008.5
20260503171000 57 238 6.1 17.4 0.00 0.00 0.00 59 1008.6
20260503170458 57 221 6.1 17.4 0.00 0.00 0.00 58 1008.6
20260503150957 58 259 8.7 23.5 0.00 0.00 0.00 52 1009.9
20260503150457 58 198 9.6 23.5 0.00 0.00 0.00 51 1010.0
20260503130959 52 215 7.8 16.5 0.00 0.00 0.00 55 1010.8
20260503130500 51 237 7.0 15.6 0.00 0.00 0.00 55 1011.0
20260503081459 49 228 5.2 12.2 0.00 0.00 0.00 50 1012.0
20260503080457 49 243 5.2 13.0 0.00 0.00 0.00 50 1011.9
20260503072456 47 191 3.5 9.6 0.00 0.00 0.00 53 1012.2
20260503071457 47 173 2.6 7.8 0.00 0.00 0.00 54 1012.3
20260503055000 44 242 1.7 6.1 0.00 0.00 0.00 62 1013.0
20260503053457 43 192 1.7 6.1 0.00 0.00 0.00 65 1013.2
20260503052959 43 226 1.7 6.1 0.00 0.00 0.00 65 1013.2
20260503052456 43 217 1.7 6.1 0.00 0.00 0.00 66 1013.2
20260503051456 42 208 1.7 3.5 0.00 0.00 0.00 68 1013.4
20260503051000 42 197 0.9 3.5 0.00 0.00 0.00 69 1013.4
20260503050456 42 214 0.9 4.3 0.00 0.00 0.00 70 1013.5
20260503045459 42 217 0.9 4.3 0.00 0.00 0.00 71 1013.5
20260503045000 42 205 0.9 3.5 0.00 0.00 0.00 71 1013.4
20260503044501 42 220 0.9 2.6 0.00 0.00 0.00 72 1013.6
20260503044002 42 210 0.9 3.5 0.00 0.00 0.00 72 1013.6
20260503043500 42 213 0.9 3.5 0.00 0.00 0.00 72 1013.5
20260503042959 42 216 0.9 3.5 0.00 0.00 0.00 72 1013.6
20260503042500 41 208 0.9 3.5 0.00 0.00 0.00 72 1013.6
20260503042003 41 216 0.9 4.3 0.00 0.00 0.00 72 1013.6
20260503041500 41 188 0.9 3.5 0.00 0.00 0.00 72 1013.6
20260503041000 41 220 0.9 2.6 0.00 0.00 0.00 72 1013.6
20260503040500 41 194 0.9 3.5 0.00 0.00 0.00 72 1013.7
20260503040004 41 192 0.9 3.5 0.00 0.00 0.00 71 1013.7
20260503035459 41 207 0.0 3.5 0.00 0.00 0.00 71 1013.7
20260503034500 42 197 0.0 2.6 0.00 0.00 0.00 71 1013.8
20260503033500 42 173 0.0 1.7 0.00 0.00 0.00 70 1013.9
20260503033003 42 202 0.0 1.7 0.00 0.00 0.00 70 1013.9
20260503032500 42 180 0.0 1.7 0.00 0.00 0.00 70 1014.0
20260503031500 42 187 0.0 2.6 0.00 0.00 0.00 69 1014.1
20260503031002 43 186 0.9 2.6 0.00 0.00 0.00 69 1014.2
20260503030002 43 192 0.9 2.6 0.00 0.00 0.00 69 1014.2
20260503025502 43 150 0.9 4.3 0.00 0.00 0.00 68 1014.3
20260503024959 43 183 0.9 4.3 0.00 0.00 0.00 68 1014.3
20260503024458 43 188 0.9 3.5 0.00 0.00 0.00 68 1014.3
20260503023959 43 198 0.9 4.3 0.00 0.00 0.00 67 1014.3
20260503023459 43 162 0.9 4.3 0.00 0.00 0.00 67 1014.3
20260503022959 43 180 0.9 2.6 0.00 0.00 0.00 67 1014.3
20260503022459 44 150 0.9 6.1 0.00 0.00 0.00 66 1014.3
20260503022002 44 183 0.9 6.1 0.00 0.00 0.00 66 1014.3
20260503021458 44 159 0.9 3.5 0.00 0.00 0.00 66 1014.3
20260503020459 44 177 0.9 4.3 0.00 0.00 0.00 65 1014.2
20260503020003 44 150 0.9 6.1 0.00 0.00 0.00 64 1014.2
20260503015459 45 192 0.9 6.1 0.00 0.00 0.00 64 1014.1
20260503014958 45 175 0.9 2.6 0.00 0.00 0.00 63 1014.2
20260503013959 45 176 1.7 4.3 0.00 0.00 0.00 62 1014.1
20260503013458 45 188 1.7 6.1 0.00 0.00 0.00 62 1014.1
20260503012959 45 188 2.6 7.0 0.00 0.00 0.00 61 1014.2
20260503011458 46 188 1.7 6.1 0.00 0.00 0.00 60 1014.1
20260503011001 46 175 1.7 6.1 0.00 0.00 0.00 60 1014.2
20260503010459 47 171 1.7 6.1 0.00 0.00 0.00 59 1014.2
20260503010001 47 157 1.7 6.1 0.00 0.00 0.00 58 1014.1
20260503005501 47 182 2.6 7.8 0.00 0.00 0.00 58 1014.1
20260503004958 47 157 1.7 7.8 0.00 0.00 0.00 57 1014.1
20260503004459 48 175 1.7 6.1 0.00 0.00 0.00 56 1014.2
20260503003959 48 184 1.7 6.1 0.00 0.00 0.00 56 1014.2
20260503003501 48 187 1.7 7.0 0.00 0.00 0.00 55 1014.2
20260503002958 48 135 2.6 8.7 0.00 0.00 0.00 55 1014.2
20260503002459 49 152 2.6 8.7 0.00 0.00 0.00 54 1014.2
20260503001959 49 175 2.6 8.7 0.00 0.00 0.00 53 1014.3
20260503001502 49 150 2.6 8.7 0.00 0.00 0.00 53 1014.4
20260503000959 49 127 3.5 11.3 0.00 0.00 0.00 53 1014.3
20260503000000 50 159 2.6 7.8 0.00 0.00 0.00 51 1014.3
20260502235501 50 123 2.6 9.6 0.00 0.00 0.00 52 1014.3
20260502234959 50 161 2.6 9.6 0.00 0.00 0.00 51 1014.5
20260502234459 50 152 3.5 8.7 0.00 0.00 0.00 51 1014.6
20260502233501 50 159 4.3 8.7 0.00 0.00 0.00 49 1014.6
20260502232458 51 147 3.5 10.4 0.00 0.00 0.00 49 1014.8
20260502231502 51 145 3.5 10.4 0.00 0.00 0.00 48 1014.8
20260502230959 51 136 3.5 8.7 0.00 0.00 0.00 49 1014.9
20260502230459 51 136 3.5 8.7 0.00 0.00 0.00 49 1014.9
20260502230002 51 101 4.3 8.7 0.00 0.00 0.00 50 1014.9
20260502225502 51 122 3.5 10.4 0.00 0.00 0.00 49 1014.9
20260502224958 51 129 2.6 7.8 0.00 0.00 0.00 49 1014.9
20260502224459 51 126 3.5 10.4 0.00 0.00 0.00 49 1015.0
20260502223959 51 145 4.3 10.4 0.00 0.00 0.00 48 1015.0
20260502223501 51 144 3.5 9.6 0.00 0.00 0.00 47 1015.2
20260502222959 51 116 4.3 9.6 0.00 0.00 0.00 48 1015.1
20260502222459 51 177 4.3 8.7 0.00 0.00 0.00 48 1015.3
20260502221959 51 99 4.3 9.6 0.00 0.00 0.00 48 1015.3
20260502221502 51 144 4.3 10.4 0.00 0.00 0.00 47 1015.2
20260502220959 52 171 5.2 10.4 0.00 0.00 0.00 47 1015.3